When you browse on this site, cookies collect data to enhance your experience and personalize the content and advertising you see.
Visit our Privacy Policy to learn more. By continuing to use the site, you agree to this use of cookies and data.
  • în România
  • Lista ţărilor
  • Pe 7 zile
  • Temperatura apei
  • Meteo pe hartă
  • Widget-uri
  • user-avatar
    Intrare

    Meteo pe oră la Akaba

    Astăzi, 22 August, Joi

    Timp Temperatura Precipitaţii Vânt Presiune Umiditate
    00:00 +27°C° 0 mm 3 m/s 746 mmHg 60%
    01:00 +27°C° 0 mm 3 m/s 746 mmHg 61%
    02:00 +26°C° 0 mm 3 m/s 746 mmHg 63%
    03:00 +26°C° 0 mm 3 m/s 746 mmHg 63%
    04:00 +26°C° 0 mm 3 m/s 746 mmHg 63%
    05:00 +25°C° 0 mm 3 m/s 746 mmHg 64%
    06:00 +27°C° 0 mm 3 m/s 746 mmHg 56%
    07:00 +30°C° 0 mm 4 m/s 746 mmHg 48%
    08:00 +33°C° 0 mm 5 m/s 746 mmHg 41%
    09:00 +35°C° 0 mm 5 m/s 746 mmHg 35%
    10:00 +37°C° 0 mm 5 m/s 746 mmHg 29%
    11:00 +41°C° 0 mm 5 m/s 745 mmHg 24%
    12:00 +42°C° 0 mm 5 m/s 745 mmHg 22%
    13:00 +44°C° 0 mm 6 m/s 744 mmHg 20%
    14:00 +45°C° 0 mm 6 m/s 743 mmHg 18%
    15:00 +45°C° 0 mm 6 m/s 743 mmHg 18%
    16:00 +44°C° 0 mm 7 m/s 743 mmHg 19%
    17:00 +43°C° 0 mm 7 m/s 743 mmHg 19%
    18:00 +39°C° 0 mm 6 m/s 743 mmHg 29%
    19:00 +35°C° 0 mm 6 m/s 744 mmHg 38%
    20:00 +32°C° 0 mm 5 m/s 744 mmHg 48%
    21:00 +30°C° 0 mm 4 m/s 744 mmHg 54%
    22:00 +29°C° 0 mm 3 m/s 745 mmHg 60%
    23:00 +28°C° 0 mm 3 m/s 745 mmHg 66%

    Mâine, 23 August, Vineri

    Timp Temperatura Precipitaţii Vânt Presiune Umiditate
    00:00 +27°C° 0 mm 3 m/s 745 mmHg 68%
    01:00 +27°C° 0 mm 3 m/s 744 mmHg 70%
    02:00 +26°C° 0 mm 2 m/s 744 mmHg 72%
    03:00 +26°C° 0 mm 3 m/s 744 mmHg 72%
    04:00 +26°C° 0 mm 3 m/s 744 mmHg 71%
    05:00 +26°C° 0 mm 3 m/s 744 mmHg 71%
    06:00 +28°C° 0 mm 3 m/s 744 mmHg 62%
    07:00 +30°C° 0 mm 3 m/s 744 mmHg 54%
    08:00 +33°C° 0 mm 4 m/s 744 mmHg 46%
    09:00 +35°C° 0 mm 3 m/s 744 mmHg 39%
    10:00 +37°C° 0 mm 3 m/s 744 mmHg 33%
    11:00 +39°C° 0 mm 2 m/s 744 mmHg 27%
    12:00 +40°C° 0 mm 3 m/s 743 mmHg 25%
    13:00 +43°C° 0 mm 3 m/s 743 mmHg 22%
    14:00 +44°C° 0 mm 3 m/s 742 mmHg 19%
    15:00 +43°C° 0 mm 3 m/s 742 mmHg 20%
    16:00 +43°C° 0 mm 4 m/s 742 mmHg 21%
    17:00 +43°C° 0 mm 5 m/s 742 mmHg 22%
    18:00 +38°C° 0 mm 4 m/s 743 mmHg 34%
    19:00 +35°C° 0 mm 4 m/s 743 mmHg 46%
    20:00 +32°C° 0 mm 4 m/s 744 mmHg 58%
    21:00 +30°C° 0 mm 3 m/s 744 mmHg 63%
    22:00 +29°C° 0 mm 2 m/s 744 mmHg 68%
    23:00 +28°C° 0 mm 2 m/s 744 mmHg 73%

    Poimâine, 24 August, Sâmbătă

    Timp Temperatura Precipitaţii Vânt Presiune Umiditate
    00:00 +28°C° 0 mm 1 m/s 744 mmHg 75%
    01:00 +27°C° 0 mm 1 m/s 744 mmHg 76%
    02:00 +27°C° 0 mm 1 m/s 744 mmHg 78%
    03:00 +26°C° 0 mm 1 m/s 744 mmHg 80%
    04:00 +26°C° 0 mm 2 m/s 744 mmHg 82%
    05:00 +26°C° 0 mm 2 m/s 744 mmHg 84%
    06:00 +28°C° 0 mm 2 m/s 745 mmHg 74%
    07:00 +29°C° 0 mm 2 m/s 745 mmHg 65%
    08:00 +31°C° 0 mm 2 m/s 745 mmHg 56%
    09:00 +35°C° 0 mm 2 m/s 745 mmHg 47%
    10:00 +37°C° 0 mm 2 m/s 745 mmHg 39%
    11:00 +39°C° 0 mm 2 m/s 745 mmHg 30%
    12:00 +40°C° 0 mm 2 m/s 745 mmHg 26%
    13:00 +42°C° 0 mm 3 m/s 744 mmHg 23%
    14:00 +44°C° 0 mm 3 m/s 744 mmHg 19%
    15:00 +43°C° 0 mm 3 m/s 744 mmHg 20%
    16:00 +42°C° 0 mm 3 m/s 744 mmHg 22%
    17:00 +42°C° 0 mm 3 m/s 744 mmHg 23%
    18:00 +39°C° 0 mm 3 m/s 744 mmHg 29%
    19:00 +37°C° 0 mm 3 m/s 745 mmHg 35%
    20:00 +34°C° 0 mm 3 m/s 745 mmHg 41%
    21:00 +32°C° 0 mm 2 m/s 746 mmHg 45%
    22:00 +31°C° 0 mm 2 m/s 746 mmHg 50%
    23:00 +30°C° 0 mm 2 m/s 746 mmHg 55%

    25 August, Duminică

    Timp Temperatura Precipitaţii Vânt Presiune Umiditate
    00:00 +30°C° 0 mm 2 m/s 746 mmHg 57%
    01:00 +29°C° 0 mm 1 m/s 746 mmHg 59%
    02:00 +29°C° 0 mm 1 m/s 746 mmHg 62%
    03:00 +28°C° 0 mm 1 m/s 746 mmHg 63%
    04:00 +28°C° 0 mm 1 m/s 746 mmHg 64%
    05:00 +28°C° 0 mm 1 m/s 746 mmHg 66%
    06:00 +30°C° 0 mm 1 m/s 746 mmHg 58%
    07:00 +32°C° 0 mm 1 m/s 746 mmHg 51%
    08:00 +35°C° 0 mm 2 m/s 746 mmHg 43%
    09:00 +37°C° 0 mm 2 m/s 746 mmHg 38%
    10:00 +39°C° 0 mm 2 m/s 746 mmHg 33%
    11:00 +41°C° 0 mm 2 m/s 746 mmHg 27%
    12:00 +42°C° 0 mm 2 m/s 745 mmHg 24%
    13:00 +43°C° 0 mm 2 m/s 745 mmHg 21%
    14:00 +45°C° 0 mm 3 m/s 744 mmHg 17%
    15:00 +44°C° 0 mm 3 m/s 744 mmHg 18%
    16:00 +44°C° 0 mm 3 m/s 744 mmHg 18%
    17:00 +43°C° 0 mm 3 m/s 744 mmHg 19%
    18:00 +40°C° 0 mm 3 m/s 744 mmHg 25%
    19:00 +37°C° 0 mm 3 m/s 745 mmHg 32%
    20:00 +35°C° 0 mm 3 m/s 745 mmHg 38%
    21:00 +34°C° 0 mm 3 m/s 746 mmHg 42%
    22:00 +33°C° 0 mm 3 m/s 746 mmHg 46%
    23:00 +31°C° 0 mm 2 m/s 746 mmHg 49%

    26 August, Luni

    Timp Temperatura Precipitaţii Vânt Presiune Umiditate
    00:00 +30°C° 0 mm 2 m/s 746 mmHg 50%
    01:00 +29°C° 0 mm 2 m/s 746 mmHg 51%
    02:00 +29°C° 0 mm 2 m/s 746 mmHg 52%
    03:00 +28°C° 0 mm 2 m/s 746 mmHg 54%
    04:00 +28°C° 0 mm 2 m/s 746 mmHg 55%
    05:00 +28°C° 0 mm 2 m/s 746 mmHg 57%
    06:00 +30°C° 0 mm 2 m/s 746 mmHg 50%
    07:00 +32°C° 0 mm 2 m/s 747 mmHg 42%
    08:00 +35°C° 0 mm 2 m/s 747 mmHg 35%
    09:00 +37°C° 0 mm 2 m/s 747 mmHg 31%
    10:00 +39°C° 0 mm 2 m/s 746 mmHg 27%
    11:00 +42°C° 0 mm 3 m/s 746 mmHg 22%
    12:00 +43°C° 0 mm 3 m/s 745 mmHg 21%
    13:00 +44°C° 0 mm 3 m/s 745 mmHg 19%
    14:00 +45°C° 0 mm 3 m/s 744 mmHg 18%
    15:00 +45°C° 0 mm 3 m/s 744 mmHg 18%
    16:00 +44°C° 0 mm 4 m/s 744 mmHg 18%
    17:00 +44°C° 0 mm 4 m/s 744 mmHg 18%
    18:00 +41°C° 0 mm 4 m/s 744 mmHg 28%
    19:00 +37°C° 0 mm 4 m/s 745 mmHg 37%
    20:00 +33°C° 0 mm 4 m/s 746 mmHg 47%
    21:00 +32°C° 0 mm 4 m/s 746 mmHg 49%
    22:00 +30°C° 0 mm 3 m/s 746 mmHg 52%
    23:00 +29°C° 0 mm 2 m/s 746 mmHg 54%

    27 August, Marţi

    Timp Temperatura Precipitaţii Vânt Presiune Umiditate
    00:00 +29°C° 0 mm 2 m/s 746 mmHg 55%
    01:00 +28°C° 0 mm 2 m/s 746 mmHg 55%
    02:00 +28°C° 0 mm 2 m/s 746 mmHg 56%
    03:00 +28°C° 0 mm 2 m/s 746 mmHg 56%
    04:00 +27°C° 0 mm 2 m/s 746 mmHg 56%
    05:00 +27°C° 0 mm 2 m/s 746 mmHg 56%
    06:00 +29°C° 0 mm 2 m/s 746 mmHg 48%
    07:00 +31°C° 0 mm 2 m/s 746 mmHg 40%
    08:00 +34°C° 0 mm 2 m/s 746 mmHg 32%
    09:00 +36°C° 0 mm 3 m/s 746 mmHg 29%
    10:00 +38°C° 0 mm 3 m/s 746 mmHg 25%
    11:00 +42°C° 0 mm 3 m/s 745 mmHg 21%
    12:00 +42°C° 0 mm 3 m/s 745 mmHg 20%
    13:00 +43°C° 0 mm 4 m/s 744 mmHg 18%
    14:00 +44°C° 0 mm 4 m/s 744 mmHg 17%
    15:00 +45°C° 0 mm 5 m/s 744 mmHg 18%
    16:00 +44°C° 0 mm 6 m/s 744 mmHg 18%
    17:00 +44°C° 0 mm 7 m/s 743 mmHg 19%
    18:00 +40°C° 0 mm 6 m/s 744 mmHg 29%
    19:00 +36°C° 0 mm 5 m/s 745 mmHg 38%
    20:00 +33°C° 0 mm 5 m/s 745 mmHg 48%
    21:00 +32°C° 0 mm 4 m/s 746 mmHg 51%
    22:00 +30°C° 0 mm 3 m/s 746 mmHg 53%
    23:00 +29°C° 0 mm 2 m/s 746 mmHg 56%
    Arată mai mult